When you browse on this site, cookies collect data to enhance your experience and personalize the content and advertising you see.
Visit our Privacy Policy to learn more. By continuing to use the site, you agree to this use of cookies and data.
  • In Hungary
  • List of Countries
  • For 7 days
  • Water Temperature
  • Satellite Maps
  • Weather Map
  • News
  • Weather Widgets
  • user-avatar
    Login

    Hourly Weather Rogow

    Today, 16 December, Sunday

    Time Temperature Precipitation Wind Pressure Humidity
    00:00 -3°C° 0 mm 2 mps 745 mmHg 88%
    01:00 -4°C° 0 mm 2 mps 745 mmHg 88%
    02:00 -4°C° 0 mm 2 mps 745 mmHg 89%
    03:00 -4°C° 0 mm 2 mps 744 mmHg 89%
    04:00 -2°C° 0 mm 1 mps 744 mmHg 90%
    05:00 -2°C° 0 mm 1 mps 744 mmHg 91%
    06:00 -2°C° 0 mm 1 mps 744 mmHg 91%
    07:00 -2°C° 0 mm 1 mps 743 mmHg 92%
    08:00 -2°C° 0 mm 1 mps 743 mmHg 89%
    09:00 -2°C° 0 mm 1 mps 743 mmHg 86%
    10:00 -1°C° 0 mm 1 mps 743 mmHg 83%
    11:00 -1°C° 0 mm 1 mps 743 mmHg 80%
    12:00 0°C° 0 mm 1 mps 743 mmHg 76%
    13:00 -2°C° 0 mm 2 mps 742 mmHg 73%
    14:00 -2°C° 0 mm 2 mps 742 mmHg 76%
    15:00 -3°C° 0 mm 2 mps 742 mmHg 80%
    16:00 -4°C° 0 mm 2 mps 742 mmHg 84%
    17:00 -4°C° 0 mm 2 mps 742 mmHg 83%
    18:00 -4°C° 0 mm 2 mps 742 mmHg 83%
    19:00 -4°C° 0 mm 2 mps 742 mmHg 83%
    20:00 -5°C° 0 mm 3 mps 742 mmHg 81%
    21:00 -5°C° 0 mm 3 mps 742 mmHg 80%
    22:00 -5°C° 0 mm 3 mps 743 mmHg 79%
    23:00 -5°C° 0 mm 3 mps 743 mmHg 79%

    Tomorrow, 17 December, Monday

    Time Temperature Precipitation Wind Pressure Humidity
    00:00 -5°C° 0 mm 3 mps 743 mmHg 80%
    01:00 -5°C° 0 mm 3 mps 743 mmHg 80%
    02:00 -4°C° 0 mm 2 mps 743 mmHg 82%
    03:00 -4°C° 0 mm 2 mps 743 mmHg 83%
    04:00 -4°C° 0 mm 2 mps 743 mmHg 84%
    05:00 -3°C° 0 mm 2 mps 743 mmHg 84%
    06:00 -3°C° 0 mm 2 mps 744 mmHg 84%
    07:00 -3°C° 0 mm 2 mps 744 mmHg 84%
    08:00 -2°C° 0 mm 2 mps 744 mmHg 83%
    09:00 -2°C° 0 mm 2 mps 745 mmHg 81%
    10:00 -1°C° 0 mm 2 mps 745 mmHg 80%
    11:00 +2°C° 0 mm 1 mps 745 mmHg 79%
    12:00 +2°C° 0 mm 1 mps 745 mmHg 78%
    13:00 +3°C° 0 mm 1 mps 746 mmHg 77%
    14:00 +2°C° 0 mm 1 mps 746 mmHg 80%
    15:00 +1°C° 0 mm 1 mps 746 mmHg 83%
    16:00 +1°C° 0 mm 1 mps 747 mmHg 86%
    17:00 0°C° 0 mm 1 mps 747 mmHg 86%
    18:00 0°C° 0 mm 1 mps 748 mmHg 86%
    19:00 0°C° 0 mm 1 mps 748 mmHg 87%
    20:00 0°C° 0 mm 1 mps 748 mmHg 87%
    21:00 0°C° 0 mm 1 mps 749 mmHg 87%
    22:00 -2°C° 0 mm 2 mps 749 mmHg 87%
    23:00 -2°C° 0 mm 2 mps 749 mmHg 87%

    Day after tomorrow, 18 December, Tuesday

    Time Temperature Precipitation Wind Pressure Humidity
    00:00 -2°C° 0 mm 2 mps 749 mmHg 87%
    01:00 -2°C° 0 mm 2 mps 750 mmHg 87%
    02:00 -2°C° 0 mm 2 mps 749 mmHg 88%
    03:00 -2°C° 0 mm 2 mps 749 mmHg 88%
    04:00 0°C° 0 mm 1 mps 749 mmHg 88%
    05:00 0°C° 0 mm 1 mps 749 mmHg 88%
    06:00 +1°C° 0 mm 1 mps 750 mmHg 88%
    07:00 +1°C° 0 mm 1 mps 750 mmHg 88%
    08:00 +1°C° 0 mm 1 mps 750 mmHg 87%
    09:00 +2°C° 0 mm 1 mps 750 mmHg 86%
    10:00 +2°C° 0 mm 1 mps 750 mmHg 85%
    11:00 +3°C° 0 mm 1 mps 750 mmHg 84%
    12:00 +3°C° 0 mm 1 mps 750 mmHg 83%
    13:00 +4°C° 0 mm 1 mps 750 mmHg 82%
    14:00 +3°C° 0 mm 1 mps 749 mmHg 84%
    15:00 +2°C° 0 mm 1 mps 749 mmHg 86%
    16:00 +2°C° 0 mm 1 mps 749 mmHg 88%
    17:00 +1°C° 0 mm 1 mps 749 mmHg 88%
    18:00 +1°C° 0 mm 1 mps 749 mmHg 89%
    19:00 +1°C° 0 mm 1 mps 749 mmHg 89%
    20:00 0°C° 0 mm 1 mps 749 mmHg 89%
    21:00 0°C° 0 mm 1 mps 749 mmHg 90%
    22:00 0°C° 0 mm 1 mps 749 mmHg 90%
    23:00 -2°C° 0 mm 2 mps 748 mmHg 90%

    19 December, Wednesday

    Time Temperature Precipitation Wind Pressure Humidity
    00:00 -2°C° 0 mm 2 mps 748 mmHg 90%
    01:00 -2°C° 0 mm 2 mps 748 mmHg 90%
    02:00 -2°C° 0 mm 2 mps 748 mmHg 90%
    03:00 -2°C° 0 mm 2 mps 748 mmHg 90%
    04:00 -2°C° 0 mm 2 mps 747 mmHg 90%
    05:00 -2°C° 0 mm 2 mps 747 mmHg 90%
    06:00 -2°C° 0 mm 2 mps 747 mmHg 90%
    07:00 -4°C° 0 mm 3 mps 747 mmHg 90%
    08:00 -2°C° 0 mm 3 mps 747 mmHg 87%
    09:00 -1°C° 0 mm 3 mps 747 mmHg 85%
    10:00 -1°C° 0 mm 3 mps 747 mmHg 83%
    11:00 0°C° 0 mm 3 mps 747 mmHg 82%
    12:00 +1°C° 0 mm 3 mps 747 mmHg 80%
    13:00 +1°C° 0 mm 3 mps 746 mmHg 79%
    14:00 0°C° 0 mm 3 mps 746 mmHg 82%
    15:00 0°C° 0 mm 3 mps 746 mmHg 84%
    16:00 -1°C° 0 mm 3 mps 746 mmHg 87%
    17:00 -1°C° 0 mm 3 mps 746 mmHg 86%
    18:00 -2°C° 0 mm 3 mps 746 mmHg 86%
    19:00 -2°C° 0 mm 3 mps 746 mmHg 86%
    20:00 -2°C° 0 mm 3 mps 745 mmHg 84%
    21:00 -2°C° 0 mm 3 mps 745 mmHg 82%
    22:00 -2°C° 0 mm 3 mps 745 mmHg 81%
    23:00 -2°C° 0 mm 3 mps 745 mmHg 80%

    20 December, Thursday

    Time Temperature Precipitation Wind Pressure Humidity
    00:00 -2°C° 0 mm 3 mps 745 mmHg 79%
    01:00 -2°C° 0 mm 3 mps 745 mmHg 77%
    02:00 -2°C° 0 mm 3 mps 745 mmHg 78%
    03:00 -2°C° 0 mm 3 mps 744 mmHg 78%
    04:00 -2°C° 0 mm 3 mps 744 mmHg 78%
    05:00 -2°C° 0 mm 3 mps 744 mmHg 78%
    06:00 -2°C° 0 mm 3 mps 744 mmHg 78%
    07:00 -2°C° 0 mm 3 mps 744 mmHg 79%
    08:00 -1°C° 0 mm 3 mps 744 mmHg 77%
    09:00 -1°C° 0 mm 3 mps 744 mmHg 76%
    10:00 -1°C° 0 mm 3 mps 745 mmHg 75%
    11:00 0°C° 0 mm 3 mps 744 mmHg 74%
    12:00 0°C° 0 mm 3 mps 744 mmHg 73%
    13:00 0°C° 0 mm 3 mps 744 mmHg 72%
    14:00 0°C° 0 mm 3 mps 744 mmHg 75%
    15:00 -1°C° 0 mm 3 mps 744 mmHg 77%
    16:00 -1°C° 0 mm 3 mps 744 mmHg 79%
    17:00 -2°C° 0 mm 3 mps 744 mmHg 80%
    18:00 -2°C° 0 mm 3 mps 744 mmHg 81%
    19:00 -2°C° 0 mm 3 mps 745 mmHg 81%
    20:00 -2°C° 0 mm 3 mps 745 mmHg 82%
    21:00 -2°C° 0 mm 3 mps 745 mmHg 82%
    22:00 -2°C° 0 mm 2 mps 745 mmHg 83%
    23:00 -2°C° 0 mm 3 mps 745 mmHg 83%

    21 December, Friday

    Time Temperature Precipitation Wind Pressure Humidity
    00:00 -2°C° 0 mm 3 mps 745 mmHg 83%
    01:00 -2°C° 0 mm 3 mps 745 mmHg 83%
    02:00 -2°C° 0.2 mm 3 mps 745 mmHg 84%
    03:00 -1°C° 0.2 mm 2 mps 745 mmHg 86%
    04:00 -1°C° 0.2 mm 2 mps 745 mmHg 88%
    05:00 -1°C° 0.2 mm 2 mps 745 mmHg 89%
    06:00 -1°C° 0.2 mm 2 mps 745 mmHg 90%
    07:00 -1°C° 0.2 mm 2 mps 745 mmHg 91%
    08:00 -1°C° 0.2 mm 2 mps 745 mmHg 90%
    09:00 +1°C° 0.2 mm 2 mps 745 mmHg 90%
    10:00 +1°C° 0.2 mm 2 mps 746 mmHg 90%
    11:00 +1°C° 0.1 mm 2 mps 745 mmHg 90%
    12:00 +2°C° 0.1 mm 2 mps 745 mmHg 89%
    13:00 +3°C° 0.1 mm 1 mps 745 mmHg 89%
    14:00 +3°C° 0 mm 1 mps 745 mmHg 89%
    15:00 +2°C° 0 mm 1 mps 745 mmHg 90%
    16:00 +1°C° 0 mm 1 mps 745 mmHg 90%
    17:00 -1°C° 0 mm 2 mps 745 mmHg 90%
    18:00 -1°C° 0 mm 2 mps 745 mmHg 90%
    19:00 -2°C° 0 mm 2 mps 745 mmHg 90%
    20:00 -2°C° 0 mm 2 mps 745 mmHg 90%
    21:00 -2°C° 0 mm 3 mps 744 mmHg 90%
    22:00 -2°C° 0 mm 3 mps 744 mmHg 90%
    23:00 -1°C° 0 mm 3 mps 744 mmHg 90%
    Show more